Wind_Speed
11 10 11 11 11 12 12 12 11 11 12 12 12 12 12 12 12 12 12 11 11 11 12 12 12 12 12 12 13 12 12 13 13 12 12 11 11 11 12 11 10 10 10
11 11 11 11 11 11 11 11 11 11 11 12 11 12 12 12 12 12 12 12 12 11 12 12 12 12 12 12 13 13 13 13 13 12 12 12 12 11 11 10 11 11 11
11 11 11 11 11 11 11 11 12 12 12 12 12 12 11 12 12 12 12 12 12 12 12 13 13 12 12 12 13 13 13 13 12 12 12 12 12 12 11 11 11 11 12
11 10 10 10 11 11 11 11 12 12 13 13 13 12 12 12 11 11 12 13 13 13 13 13 13 12 12 12 12 12 13 13 12 12 12 12 12 12 11 12 12 12 13
11 11 11 11 11 11 12 12 12 13 13 13 13 12 12 12 12 12 13 13 13 13 13 13 13 13 12 13 13 13 13 13 13 12 12 12 12 12 12 12 12 13 13
11 11 11 11 11 11 12 12 12 12 12 12 12 12 12 13 13 13 13 13 13 13 13 13 14 13 13 13 13 12 12 13 13 13 13 13 12 12 12 12 13 13 14
11 12 11 11 12 12 12 12 12 12 12 12 12 12 12 12 13 13 13 13 13 14 15 15 14 13 12 13 12 12 12 12 13 13 13 12 12 13 13 13 13 14 14
12 12 12 12 12 13 13 12 12 12 12 12 11 12 12 12 12 13 13 13 14 14 13 13 13 13 12 13 13 13 12 12 13 13 13 13 13 13 13 14 14 15 14
13 13 14 13 13 13 13 13 13 13 13 12 12 12 12 12 13 13 13 13 14 14 13 13 13 13 12 12 13 13 13 13 13 14 14 13 14 14 14 14 14 14 14
13 13 13 13 12 13 13 13 14 14 13 13 13 13 13 13 14 13 13 14 14 14 14 14 14 14 13 13 13 12 13 13 14 14 13 14 14 14 14 14 14 15 15
13 13 14 14 13 13 14 14 14 14 14 14 14 14 14 14 14 14 14 14 15 15 14 14 15 14 15 14 13 13 13 14 14 14 14 14 13 14 14 15 15 15 15
14 14 14 14 14 15 14 14 14 14 14 14 14 14 14 14 14 14 14 15 15 16 16 15 15 15 15 15 14 14 14 14 14 13 13 13 13 14 14 15 14 14 14
15 15 16 16 15 15 14 14 15 15 15 14 14 14 14 14 14 14 15 15 16 16 16 15 15 15 15 15 15 15 15 15 14 13 13 14 14 15 15 15 15 15 14
16 16 16 16 16 16 15 15 15 15 15 15 15 15 15 15 15 15 15 16 16 17 16 16 15 15 15 16 15 16 16 15 15 15 14 15 15 15 16 16 16 15 15
16 16 16 16 16 16 15 15 16 16 17 16 16 16 16 16 15 15 16 15 15 15 15 16 16 16 16 17 16 16 16 16 16 16 15 15 15 15 16 16 16 16 16
18 17 16 16 17 17 17 16 16 17 17 17 17 16 16 16 16 16 16 16 16 16 16 16 16 16 16 16 16 17 17 17 16 16 16 16 16 16 16 16 16 16 16
18 17 17 17 16 17 17 17 17 17 17 17 17 17 17 17 17 17 16 16 16 16 16 16 16 16 16 16 16 16 16 16 16 16 16 16 17 17 17 17 17 16 16
18 18 18 17 17 17 17 17 17 16 17 17 16 17 17 18 17 17 16 16 17 17 17 16 15 16 16 16 16 16 16 16 16 15 16 16 16 16 16 16 16 16 16
19 18 18 18 18 18 18 18 17 16 17 17 17 17 18 18 18 17 16 16 16 16 16 16 16 17 16 16 16 16 16 16 16 17 17 16 16 16 16 16 17 16 16
20 19 19 19 19 18 18 18 18 17 17 17 17 18 18 19 18 18 17 17 17 17 16 17 16 16 17 16 16 16 16 16 17 17 17 17 17 17 17 17 16 16 16
20 20 20 20 19 19 18 18 18 18 17 17 17 18 18 19 19 18 18 18 17 17 17 17 16 16 16 16 16 16 16 17 17 18 17 17 17 17 17 17 17 17 17
21 21 21 20 20 19 19 19 19 19 19 18 18 18 19 19 20 20 19 19 18 18 17 17 17 17 17 18 18 18 18 18 18 18 18 18 17 18 18 18 18 18 18
22 21 21 21 21 21 21 21 20 20 19 19 20 20 20 20 20 20 21 20 20 20 19 19 19 19 19 19 19 19 19 20 19 19 19 19 19 19 19 20 19 19 19
23 22 23 23 22 22 23 22 22 21 21 21 21 21 21 22 21 21 22 22 21 21 21 21 20 20 20 20 21 20 20 21 21 21 20 19 20 20 20 21 21 20 20
25 24 24 24 23 23 23 23 23 22 22 22 22 22 22 23 23 23 22 22 23 23 22 22 22 22 21 21 22 22 22 22 22 22 21 21 21 21 21 21 21 22 22
26 26 25 25 24 24 24 24 24 24 24 23 23 23 23 23 24 24 24 24 24 24 24 23 24 23 23 23 23 23 24 24 24 24 23 23 23 22 23 23 23 23 23
Wind_Direction
272 274 278 279 278 279 279 278 277 280 281 279 271 272 275 271 269 271 270 268 267 267 268 270 273 272 274 276 279 279 281 282 284 284 284 284 285 284 281 282 282 285 285
273 273 276 277 279 278 277 280 278 278 280 282 275 273 275 272 270 270 268 267 267 266 267 269 269 270 273 277 279 280 282 282 281 280 279 280 282 283 282 283 283 283 284
270 272 272 275 279 280 279 279 280 276 277 280 279 277 274 271 269 269 266 265 267 267 267 270 269 270 271 275 276 276 279 282 282 281 279 279 279 282 282 282 283 282 282
274 274 275 276 276 278 280 280 279 276 274 274 276 273 270 270 268 270 269 266 267 269 270 268 267 268 273 275 277 279 281 282 282 281 280 279 278 278 280 282 284 284 283
284 281 281 279 276 277 278 280 277 276 274 272 274 272 269 269 268 269 270 268 267 268 269 269 268 269 271 275 276 278 278 279 283 283 281 278 277 277 276 279 284 287 285
286 284 284 281 278 277 278 278 275 275 274 273 273 272 269 267 267 266 268 268 267 267 268 268 271 271 271 275 276 278 279 280 282 282 281 280 280 279 279 280 284 286 284
286 287 284 283 280 276 275 274 272 274 274 273 272 271 268 264 263 264 268 269 269 267 267 269 270 270 272 275 276 278 281 280 282 282 280 279 280 281 282 284 287 287 284
283 286 287 284 280 278 275 272 271 273 273 270 269 267 265 263 263 265 268 270 269 268 266 269 270 270 270 272 276 277 281 280 280 284 283 279 278 281 283 287 289 288 285
283 283 283 283 279 277 275 273 271 271 270 269 267 264 265 264 263 265 268 271 269 268 268 271 272 273 270 272 274 276 278 278 281 285 282 279 279 280 283 286 289 289 287
286 285 283 282 279 275 272 272 269 268 268 270 267 264 262 263 264 265 267 271 271 270 268 268 270 269 267 271 275 277 278 279 281 282 279 280 280 279 285 289 290 287 288
285 285 285 284 282 279 275 271 269 268 268 269 266 264 263 264 264 263 267 269 270 270 269 270 269 270 271 270 272 276 280 282 282 280 278 278 278 279 284 289 290 288 287
280 282 283 284 283 281 278 273 268 267 268 268 267 266 263 263 264 263 267 269 269 268 268 269 270 270 270 270 271 273 276 279 280 281 280 278 279 282 286 287 290 291 288
278 279 281 284 283 279 279 276 271 268 265 265 265 264 264 263 263 267 271 271 269 268 269 268 268 268 270 270 270 270 274 275 277 280 282 280 281 284 286 285 288 289 289
276 278 282 284 283 279 278 275 271 267 265 265 264 263 264 265 267 270 273 273 271 268 266 266 266 267 269 269 271 271 272 274 274 280 286 285 282 284 286 286 287 288 289
278 280 282 281 280 279 276 273 270 268 266 265 263 264 265 265 270 272 272 272 272 269 267 266 268 268 267 268 269 271 272 274 276 281 284 284 284 286 286 286 285 285 286
277 277 280 280 276 276 274 272 268 267 266 266 263 261 265 266 270 272 271 269 268 268 267 266 268 268 268 268 268 271 273 276 278 279 281 283 284 286 287 287 285 283 283
276 274 275 276 276 275 273 271 269 267 268 266 262 261 263 264 269 272 269 267 266 266 266 265 263 264 267 269 268 270 274 275 277 279 280 282 285 286 287 289 289 286 284
274 275 274 274 276 278 275 272 270 269 270 267 263 264 266 265 266 268 267 265 265 266 266 264 262 264 267 269 271 270 271 273 276 281 284 284 284 285 287 288 290 289 287
277 275 276 274 275 276 275 275 271 269 268 268 264 264 265 265 264 265 265 266 267 268 270 267 265 264 264 267 270 272 272 275 277 280 283 283 284 286 289 289 289 289 287
273 274 274 273 273 272 271 274 271 269 268 268 264 264 263 264 263 263 263 264 266 268 268 267 264 262 264 266 268 270 273 275 279 283 282 281 283 287 289 289 288 288 286
271 271 271 271 271 270 270 273 269 266 266 267 266 265 265 264 263 263 265 265 266 267 266 264 263 262 264 267 270 271 274 276 279 281 281 281 284 286 289 290 289 287 285
269 269 269 268 268 268 268 270 268 265 265 266 266 265 265 265 264 262 264 264 265 266 265 264 263 264 266 269 271 271 274 278 279 279 280 281 282 283 285 287 288 287 284
267 266 266 265 265 266 266 268 268 266 265 265 265 265 265 266 265 264 264 264 265 265 264 263 264 263 265 268 271 273 274 275 278 279 279 281 283 282 283 285 286 286 284
266 266 265 265 265 265 266 268 268 265 264 264 265 265 265 265 264 263 266 264 263 263 263 263 264 265 266 268 270 272 273 273 274 276 278 281 283 283 284 284 286 286 283
266 265 264 264 264 265 267 269 267 265 264 265 266 266 266 265 264 264 264 263 262 261 262 263 265 266 267 269 269 269 271 272 273 275 277 280 282 283 283 283 284 285 285
266 265 265 264 265 266 267 268 267 264 264 266 268 267 266 266 264 263 262 262 262 261 260 263 266 267 268 268 268 267 270 271 273 274 275 278 280 281 281 282 284 285 286
Height
5867 5867 5867 5867 5866 5866 5865 5865 5865 5865 5865 5864 5864 5863 5863 5863 5863 5863 5863 5863 5863 5863 5863 5863 5863 5862 5862 5862 5861 5861 5860 5859 5858 5858 5857 5857 5856 5855 5854 5854 5853 5852 5852
5864 5864 5864 5863 5863 5863 5863 5862 5862 5862 5861 5861 5860 5860 5860 5860 5860 5860 5860 5860 5860 5860 5860 5860 5860 5859 5859 5859 5858 5857 5857 5856 5855 5855 5854 5854 5854 5852 5852 5851 5850 5850 5849
5861 5861 5860 5860 5860 5860 5860 5859 5859 5859 5858 5858 5857 5857 5857 5857 5857 5857 5857 5857 5857 5857 5857 5856 5856 5856 5856 5856 5855 5854 5854 5853 5852 5852 5852 5851 5850 5850 5849 5848 5848 5847 5846
5858 5857 5857 5857 5856 5856 5856 5856 5856 5855 5855 5854 5854 5854 5854 5854 5854 5854 5854 5854 5854 5854 5853 5853 5853 5853 5852 5852 5852 5851 5851 5850 5849 5849 5848 5848 5848 5847 5846 5846 5845 5844 5843
5854 5854 5853 5853 5853 5852 5852 5852 5852 5851 5851 5851 5850 5850 5850 5850 5850 5851 5851 5851 5850 5850 5850 5850 5850 5849 5849 5849 5848 5848 5847 5847 5846 5845 5845 5844 5844 5844 5843 5843 5842 5841 5839
5851 5851 5850 5849 5849 5849 5849 5848 5848 5847 5847 5847 5847 5847 5847 5847 5847 5847 5848 5848 5847 5847 5847 5846 5846 5846 5846 5845 5845 5844 5844 5843 5843 5842 5842 5841 5841 5840 5840 5839 5838 5837 5836
5848 5847 5847 5846 5845 5845 5845 5845 5844 5844 5844 5844 5843 5843 5844 5844 5844 5844 5845 5845 5844 5844 5844 5843 5843 5843 5842 5842 5841 5841 5841 5840 5840 5839 5838 5838 5837 5837 5836 5836 5835 5834 5832
5844 5844 5843 5843 5842 5841 5841 5841 5840 5840 5840 5840 5840 5840 5840 5840 5841 5841 5841 5841 5841 5841 5841 5840 5840 5839 5839 5839 5838 5838 5838 5837 5836 5836 5835 5834 5834 5833 5833 5832 5831 5830 5829
5840 5840 5839 5839 5838 5838 5837 5837 5837 5837 5837 5836 5836 5837 5837 5837 5837 5837 5837 5837 5837 5837 5837 5837 5837 5836 5836 5835 5835 5834 5834 5833 5833 5832 5832 5831 5830 5829 5829 5828 5827 5826 5825
5836 5836 5835 5834 5834 5834 5833 5833 5833 5833 5833 5833 5833 5833 5833 5834 5834 5834 5834 5834 5834 5833 5833 5833 5833 5832 5832 5831 5831 5831 5830 5829 5829 5829 5828 5827 5827 5826 5825 5824 5823 5822 5821
5833 5832 5831 5830 5830 5830 5829 5829 5829 5829 5829 5829 5829 5829 5829 5829 5829 5830 5829 5829 5830 5829 5829 5829 5829 5829 5828 5828 5828 5827 5827 5826 5825 5825 5824 5824 5823 5822 5821 5820 5819 5818 5816
5828 5828 5827 5826 5825 5825 5824 5824 5824 5824 5824 5824 5824 5825 5825 5825 5825 5825 5825 5825 5825 5825 5825 5825 5825 5824 5824 5824 5823 5823 5823 5822 5822 5821 5821 5820 5819 5818 5818 5816 5815 5814 5812
5824 5823 5822 5822 5821 5820 5820 5820 5820 5820 5820 5820 5820 5821 5821 5821 5821 5821 5821 5821 5821 5820 5820 5820 5820 5820 5820 5819 5819 5819 5819 5818 5818 5817 5817 5816 5815 5815 5814 5813 5811 5810 5809
5819 5818 5818 5817 5816 5816 5815 5815 5815 5815 5815 5816 5816 5816 5817 5817 5817 5816 5816 5816 5816 5816 5816 5816 5816 5815 5815 5815 5815 5815 5815 5814 5814 5813 5813 5812 5811 5811 5809 5808 5807 5806 5805
5814 5813 5813 5812 5811 5811 5810 5810 5810 5810 5811 5811 5811 5812 5812 5812 5812 5812 5812 5811 5811 5811 5811 5811 5811 5811 5811 5811 5811 5811 5810 5810 5810 5809 5809 5808 5807 5806 5805 5804 5803 5801 5800
5809 5808 5807 5807 5806 5805 5805 5805 5805 5805 5805 5806 5806 5807 5807 5807 5807 5807 5807 5807 5806 5806 5806 5806 5806 5806 5806 5806 5806 5806 5806 5806 5805 5805 5804 5804 5803 5802 5800 5799 5798 5797 5796
5803 5802 5802 5801 5801 5800 5800 5800 5800 5800 5800 5801 5801 5801 5801 5802 5802 5802 5802 5802 5802 5802 5802 5802 5802 5802 5802 5802 5802 5801 5801 5801 5801 5800 5800 5799 5798 5797 5796 5794 5793 5792 5790
5797 5797 5796 5796 5796 5795 5795 5795 5795 5795 5795 5796 5796 5796 5796 5796 5797 5797 5797 5797 5797 5797 5797 5797 5797 5797 5797 5797 5797 5797 5797 5796 5796 5796 5795 5794 5793 5792 5791 5790 5788 5787 5785
5791 5790 5790 5790 5790 5790 5790 5790 5790 5790 5790 5790 5790 5790 5790 5791 5791 5791 5791 5791 5792 5792 5792 5792 5792 5792 5792 5792 5792 5792 5792 5792 5791 5791 5790 5789 5788 5787 5786 5785 5784 5782 5781
5784 5784 5784 5784 5784 5784 5784 5784 5784 5784 5785 5785 5785 5785 5785 5785 5785 5786 5786 5786 5786 5786 5787 5787 5787 5787 5787 5787 5787 5787 5787 5787 5787 5786 5785 5784 5783 5782 5781 5780 5779 5777 5776
5778 5778 5778 5778 5778 5778 5778 5778 5778 5779 5779 5779 5779 5779 5779 5780 5780 5780 5780 5781 5781 5781 5781 5781 5782 5782 5783 5782 5782 5782 5782 5782 5781 5781 5780 5779 5778 5777 5776 5775 5773 5772 5771
5771 5771 5772 5772 5772 5772 5772 5773 5773 5773 5773 5773 5774 5774 5774 5774 5774 5774 5775 5775 5775 5776 5776 5776 5776 5777 5777 5777 5777 5777 5776 5776 5776 5775 5774 5774 5773 5772 5770 5769 5768 5766 5765
5765 5765 5765 5766 5766 5766 5766 5766 5767 5767 5767 5767 5767 5767 5768 5768 5768 5768 5769 5769 5769 5770 5770 5770 5771 5771 5771 5771 5771 5771 5771 5770 5770 5769 5768 5768 5767 5766 5765 5763 5762 5760 5759
5758 5758 5758 5758 5759 5759 5759 5759 5760 5760 5760 5761 5761 5761 5761 5761 5761 5762 5762 5762 5763 5763 5764 5764 5765 5765 5765 5765 5765 5765 5764 5764 5764 5763 5762 5761 5760 5760 5758 5757 5756 5754 5753
5751 5751 5750 5751 5751 5752 5752 5752 5752 5752 5753 5754 5754 5754 5754 5754 5754 5755 5755 5755 5756 5756 5757 5758 5758 5758 5758 5758 5758 5758 5758 5758 5757 5756 5756 5755 5754 5753 5752 5751 5749 5748 5746
5743 5743 5742 5743 5743 5744 5744 5745 5745 5745 5746 5746 5746 5746 5746 5747 5747 5747 5748 5748 5749 5749 5750 5750 5751 5751 5751 5751 5751 5751 5751 5750 5750 5749 5749 5748 5747 5746 5745 5744 5742 5741 5739